Home > Weather > Marburg > Past weeks

Flag for Germany Weather for the Past 2 Weeks in Marburg, Hesse, Germany

Now
30 °F

Passing clouds.


Feels Like: 30 °F
Forecast: 31 / 39 °F
Wind: No wind

Location: Fritzlar Airport

Current Time: Feb 12, 2016 at 6:54:20 AM

Latest Report: Feb 12, 2016 at 5:20 AM


Visibility: 6 mi

Pressure: 29.65 "Hg

Humidity: 100%

Dew point: 30 °F

Location of MarburgLocation

Historic Weather in Marburg — Graph

°F

Marburg Temperature Yesterday

Maximum temperature yesterday: 41 °F (at 11:20 AM)
Minimum temperature yesterday: 30 °F (at 11:20 PM)
Average temperature yesterday: 37 °F

High & Low Weather Summary for the Past Weeks

 TemperatureHumidityPressure
High54 °F (Feb 1, 10:20 AM)100% (Feb 1, 5:20 AM)30.33 "Hg (Feb 1, 5:20 AM)
Low28 °F (Feb 12, 1:20 AM)50% (Jan 28, 2:20 PM)28.88 "Hg (Feb 9, 6:20 PM)
Average42 °F81%29.84 "Hg
* Reported Jan 28 4:20 AM — Feb 12 4:20 AM, Marburg, Weather by CustomWeather, © 2016

Note: Actual official high and low records may vary slightly from our data, if they occured in-between our weather recording intervals... More about our weather records

Advertising

Marburg Weather History for the Previous 24 Hours

 ConditionsComfort  
Time TempWeatherWind HumidityBarometerVisibility
4:20 AM
Fri, Feb 12
32 °FPartly cloudy.No wind93%29.65 "Hg5 mi
4:00 AM32 °FLight freezing rain. Partly cloudy.2 mph93%29.65 "Hg5 mi
3:20 AM30 °FPartly cloudy.No wind100%29.65 "Hg5 mi
2:20 AM30 °FPassing clouds.1 mph93%29.68 "Hg5 mi
1:20 AM28 °FFog.2 mph100%29.68 "Hg5 mi
12:20 AM30 °FPassing clouds.1 mph93%29.68 "HgN/A
11:20 PM
Thu, Feb 11
30 °FPassing clouds.1 mph93%29.68 "HgN/A
10:20 PM34 °FPassing clouds.3 mph87%29.68 "HgN/A
9:20 PM32 °FPassing clouds.5 mph87%29.68 "HgN/A
8:20 PM34 °FPassing clouds.2 mph87%29.68 "HgN/A
7:20 PM32 °FPassing clouds.6 mph87%29.68 "HgN/A
6:20 PM37 °FOvercast.2 mph75%29.65 "HgN/A
5:20 PM39 °FPartly sunny.7 mph70%29.65 "HgN/A
5:00 PM41 °FPartly sunny.6 mph66%29.65 "HgN/A
4:20 PM41 °FPartly sunny.9 mph66%29.65 "HgN/A
3:20 PM41 °FBroken clouds.12 mph70%29.65 "HgN/A
2:20 PM41 °FBroken clouds.14 mph70%29.65 "HgN/A
1:20 PM41 °FScattered showers. Broken clouds.15 mph70%29.65 "HgN/A
12:20 PM41 °FScattered showers. Partly sunny.12 mph70%29.65 "HgN/A
11:20 AM41 °FScattered clouds.12 mph81%29.65 "HgN/A
10:20 AM39 °FScattered showers. Scattered clouds.15 mph81%29.65 "HgN/A
9:20 AM37 °FPartly sunny.8 mph87%29.62 "HgN/A
8:20 AM36 °FScattered clouds.6 mph87%29.62 "HgN/A
7:20 AM36 °FPassing clouds.9 mph81%29.62 "HgN/A
6:20 AM34 °FPassing clouds.8 mph87%29.59 "HgN/A
Weather by CustomWeather, © 2016

See weather overviewHow to use our weather pages